{"data":{"norad_id":63895,"epoch":"2026-05-25T04:24:06.579936Z","epoch_age_seconds":53220,"freshness":"FRESH","line1":"1 63895U 25095F   26145.18340949  .00016188  00000+0  59623-3 0  9999","line2":"2 63895  42.9990 104.4720 0001414 275.1177  84.9513 15.27593726 59487","mean_motion":15.27593726,"eccentricity":0.0001414,"inclination_deg":42.999,"raan_deg":104.472,"arg_perigee_deg":275.1177,"mean_anomaly_deg":84.9513,"bstar":0.00059623,"rev_number":5948,"period_min":94.265901691717,"perigee_km":482.0378298631,"apogee_km":483.97816166791,"semimajor_km":6861.1449957655,"source":"CELESTRAK","updated_at":"2026-05-25T13:38:20.175662Z"}}